Weather History for Fairhope, AL

Change the Weather History Date:

Saturday, February 23, 2013

  Actual Average (KBFM) Record (KBFM)
Temperature  
Mean Temperature 60 °F -  
Max Temperature 64 °F 62 °F 75 °F (2011)
Min Temperature 57 °F 45 °F 34 °F (2002)
Degree Days  
Heating Degree Days 4    
Growing Degree Days 10 (Base 50)    
Moisture  
Dew Point 58 °F    
Average Humidity 96    
Maximum Humidity 100    
Minimum Humidity 88    
Precipitation  
Precipitation 0.91 in - - ()
Sea Level Pressure  
Sea Level Pressure 29.90 in    
Wind  
Wind Speed 4 mph (NNW)    
Max Wind Speed 12 mph    
Max Gust Speed 17 mph    
Visibility 6 miles    
Events Rain    
Averages and records for this station are not official NWS values.
T = Trace of Precipitation, MM = Missing Value Source: NWS Daily Summary

Daily Weather History Graph

Daily Weather History Graph

Search for Another Location

Airport:

Trip Planner

Search our weather history database for the weather conditions in past years. The results will help you decide how hot, cold, wet, or windy it might be!

Date:

Astronomy

Feb. 23, 2013 Rise Set
Actual Time 6:23 AM CST 5:46 PM CST
Civil Twilight 5:59 AM CST 6:10 PM CST
Nautical Twilight 5:31 AM CST 6:38 PM CST
Astronomical Twilight 5:03 AM CST 7:06 PM CST
Moon 4:00 PM CST (2/23) 4:40 AM CST (2/23)
Length of Visible Light 12h 10m
Length of Day
11h 22m
Waxing Gibbous, 95% of the Moon is Illuminated
Feb 23
Waxing Gibbous
Feb 25
Full
Mar 4
Last Quarter
Mar 11
New
Mar 19
First Quarter

Hourly Weather History & Observations

Time (CST) Temp. Dew Point Humidity Pressure Visibility Wind Dir Wind Speed Gust Speed Precip Events Conditions
12:15 AM 64.4 °F 62.6 °F 94% 29.90 in 0.5 mi Calm Calm - N/A Rain Light Rain
12:35 AM 62.6 °F 62.6 °F 100% 29.90 in 0.5 mi Calm Calm - N/A Rain Heavy Rain
12:55 AM 62.6 °F 62.6 °F 100% 29.88 in 0.5 mi Calm Calm - N/A Rain Rain
1:15 AM 64.4 °F 62.6 °F 94% 29.87 in 0.5 mi Calm Calm - N/A Rain Light Rain
1:35 AM 64.4 °F 62.6 °F 94% 29.87 in 0.5 mi Calm Calm - N/A Rain Light Rain
1:55 AM 64.4 °F 64.4 °F 100% 29.86 in 0.2 mi Calm Calm - N/A Rain Rain
2:35 AM 62.6 °F 60.8 °F 94% 29.85 in 0.5 mi NW 4.6 mph - N/A Rain Light Rain
2:55 AM 60.8 °F 60.8 °F 100% 29.85 in 0.5 mi NW 3.5 mph - N/A Rain Rain
3:15 AM 60.8 °F 60.8 °F 100% 29.85 in 0.5 mi NW 3.5 mph - N/A Rain Light Rain
3:35 AM 60.8 °F 60.8 °F 100% 29.87 in 0.8 mi NW 5.8 mph - N/A Rain Light Rain
3:55 AM 59.0 °F 59.0 °F 100% 29.88 in 2.5 mi NNW 8.1 mph - N/A Rain Light Rain
4:15 AM 59.0 °F 59.0 °F 100% 29.88 in 2.5 mi NNW 5.8 mph - N/A Rain Rain
4:35 AM 60.8 °F 59.0 °F 94% 29.88 in 5.0 mi North 8.1 mph - 0.02 in Rain Light Rain
4:55 AM 60.8 °F 59.0 °F 94% 29.87 in 10.0 mi NNE 6.9 mph - 0.02 in Rain Light Rain
5:15 AM 60.8 °F 59.0 °F 94% 29.88 in 10.0 mi NNE 4.6 mph - N/A   Overcast
5:35 AM 60.8 °F 59.0 °F 94% 29.88 in 7.0 mi North 3.5 mph - N/A   Overcast
5:55 AM 60.8 °F 60.8 °F 100% 29.89 in 7.0 mi NNW 5.8 mph - N/A   Overcast
6:15 AM 59.0 °F 59.0 °F 100% 29.93 in 5.0 mi WNW 11.5 mph 16.1 mph 0.10 in Rain Heavy Rain
6:35 AM 57.2 °F 57.2 °F 100% 29.91 in 7.0 mi NW 6.9 mph - 0.45 in Rain Rain
6:55 AM 59.0 °F 57.2 °F 94% 29.89 in 4.0 mi NNE 11.5 mph - 0.59 in Rain Heavy Rain
7:15 AM 59.0 °F 59.0 °F 100% 29.90 in 5.0 mi NE 6.9 mph - 0.04 in Rain Rain
7:35 AM 59.0 °F 57.2 °F 94% 29.93 in 3.0 mi NNW 3.5 mph - 0.12 in Rain Heavy Rain
7:55 AM 59.0 °F 57.2 °F 94% 29.92 in 2.5 mi North 6.9 mph - 0.19 in Rain Rain
8:15 AM 59.0 °F 57.2 °F 94% 29.92 in 7.0 mi NNE 5.8 mph - 0.03 in Rain Rain
8:35 AM 59.0 °F 57.2 °F 94% 29.92 in 7.0 mi NE 4.6 mph - 0.03 in   Mostly Cloudy
8:55 AM 59.0 °F 57.2 °F 94% 29.92 in 10.0 mi North 5.8 mph - 0.03 in Rain Light Rain
9:15 AM 59.0 °F 57.2 °F 94% 29.92 in 7.0 mi North 4.6 mph - N/A   Overcast
9:35 AM 59.0 °F 57.2 °F 94% 29.92 in 7.0 mi NNW 6.9 mph - N/A   Overcast
9:55 AM 59.0 °F 57.2 °F 94% 29.91 in 7.0 mi North 8.1 mph - N/A   Overcast
10:15 AM 59.0 °F 57.2 °F 94% 29.90 in 7.0 mi North 6.9 mph - N/A   Mostly Cloudy
10:35 AM 59.0 °F 59.0 °F 100% 29.90 in 7.0 mi North 6.9 mph - N/A   Mostly Cloudy
10:55 AM 59.0 °F 59.0 °F 100% 29.90 in 7.0 mi North 5.8 mph - N/A   Overcast
11:15 AM 60.8 °F 59.0 °F 94% 29.90 in 7.0 mi NNE 6.9 mph - N/A   Overcast
11:35 AM 60.8 °F 59.0 °F 94% 29.91 in 7.0 mi North 4.6 mph - N/A   Overcast
12:15 PM 59.0 °F 57.2 °F 94% 29.90 in 7.0 mi NNW 9.2 mph - N/A   Overcast
12:35 PM 59.0 °F 57.2 °F 94% 29.90 in 10.0 mi North 5.8 mph - N/A   Overcast
1:15 PM 60.8 °F 59.0 °F 94% 29.90 in 10.0 mi NW 9.2 mph - N/A Rain Light Rain
1:35 PM 59.0 °F 59.0 °F 100% 29.91 in 10.0 mi NW 5.8 mph - 0.02 in Rain Rain
1:55 PM 59.0 °F 57.2 °F 94% 29.92 in 5.0 mi WNW 8.1 mph - 0.05 in Rain Rain
2:15 PM 59.0 °F 57.2 °F 94% 29.91 in 7.0 mi NW 10.4 mph 17.3 mph 0.01 in Rain Rain
2:35 PM 59.0 °F 57.2 °F 94% 29.91 in 10.0 mi NNW 6.9 mph - 0.02 in Rain Light Rain
3:15 PM 59.0 °F 57.2 °F 94% 29.87 in 10.0 mi NNE 6.9 mph - 0.01 in Rain Light Rain
3:35 PM 59.0 °F 59.0 °F 100% 29.85 in 10.0 mi East 5.8 mph - 0.01 in Rain Rain
4:15 PM 59.0 °F 59.0 °F 100% 29.79 in 5.0 mi East 9.2 mph - N/A   Scattered Clouds
4:35 PM 60.8 °F 59.0 °F 94% 29.81 in 5.0 mi NE 4.6 mph - N/A   Mostly Cloudy
4:55 PM 60.8 °F 59.0 °F 94% 29.84 in 7.0 mi Calm Calm - N/A   Scattered Clouds
5:15 PM 60.8 °F 59.0 °F 94% 29.85 in 7.0 mi NW 4.6 mph - N/A   Mostly Cloudy
5:35 PM 59.0 °F 59.0 °F 100% 29.86 in 7.0 mi NW 8.1 mph - N/A   Overcast
5:55 PM 59.0 °F 59.0 °F 100% 29.87 in 5.0 mi NW 8.1 mph - N/A   Overcast
6:15 PM 59.0 °F 57.2 °F 94% 29.88 in 7.0 mi NW 6.9 mph - N/A   Overcast
6:35 PM 59.0 °F 57.2 °F 94% 29.89 in 7.0 mi NW 3.5 mph - N/A   Overcast
6:55 PM 59.0 °F 57.2 °F 94% 29.91 in 5.0 mi WNW 3.5 mph - N/A   Overcast
7:15 PM 59.0 °F 57.2 °F 94% 29.90 in 7.0 mi NNW 5.8 mph - N/A   Overcast
7:35 PM 59.0 °F 57.2 °F 94% 29.91 in 7.0 mi NNW 5.8 mph - N/A   Overcast
7:55 PM 59.0 °F 57.2 °F 94% 29.91 in 7.0 mi NNW 4.6 mph - N/A   Overcast
8:15 PM 59.0 °F 57.2 °F 94% 29.92 in 10.0 mi North 3.5 mph - N/A   Overcast
8:35 PM 59.0 °F 57.2 °F 94% 29.92 in 7.0 mi North 3.5 mph - N/A   Overcast
8:55 PM 59.0 °F 57.2 °F 94% 29.93 in 10.0 mi North 3.5 mph - N/A   Overcast
9:35 PM 59.0 °F 57.2 °F 94% 29.95 in 7.0 mi North 3.5 mph - N/A   Overcast
9:55 PM 59.0 °F 57.2 °F 94% 29.95 in 7.0 mi North 3.5 mph - N/A   Overcast
10:15 PM 59.0 °F 55.4 °F 88% 29.95 in 7.0 mi NNW 3.5 mph - N/A   Overcast
10:35 PM 59.0 °F 55.4 °F 88% 29.96 in 7.0 mi NNW 3.5 mph - N/A   Overcast
11:15 PM 57.2 °F 55.4 °F 94% 29.95 in 4.0 mi North 4.6 mph - N/A   Overcast
11:35 PM 57.2 °F 55.4 °F 94% 29.96 in 4.0 mi North 4.6 mph - N/A   Overcast
11:55 PM 57.2 °F 55.4 °F 94% 29.96 in 7.0 mi North 6.9 mph - N/A   Overcast